Starlink 30983

operational
NORAD ID: 58514 Int'l Des: 2023-191 Owner: SPXS Country: US Constellation: starlink
LEOCIRCULAR

Starlink 30983について

説明を読み込み中...

リアルタイム位置

3D地球を読み込み中...

次回通過

高度履歴

Altitude vs Time

uPlot chart will show altitude changes over time

軌道要素

1 58514U 23191G 25303.84968361 .00015657 00000-0 11727-2 0 9991
2 58514 43.0041 91.1898 0001274 286.5882 73.4820 15.02495942105568
Epoch: Oct 30, 2025 • Age: 20 hours

現在のステータス

高度 571.7 km
速度 7.58 km/s
衛星直下点 -43.16°S, 64.41°E
打ち上げ日 Dec 7, 2023
運用期間 1.9 years
タイプ internet

技術仕様

分類 Payload
質量 730.00 kg
乾燥質量 700.00 kg
総質量 730.00 kg
長さ 0.30 m
直径 4.10 m
スパン 29.00 m
形状 Box + pan
製造者 SPXS
バスタイプ Starlink V2M
フェーズステータス In Orbit
所有者/国 SPXS/US

大規模コンステレーション

Loading constellations...